Total_Precipitation_Accumulation
0.21 0.22 0.31 0.46 0.45 0.31 0.12 0.03 0.02 0.03 0.04 0.05 0.07 0.09 0.08 0.09 0.14 0.29 0.30 0.22 0.21 0.25 0.36 0.63 0.97 1.16 1.17 1.08 0.97 0.88 0.81 0.75 0.79 0.82 0.84 0.82 0.77 0.75 0.77 0.81 0.84 0.92 1.03 1.00 0.99 0.93 0.90 0.82 0.71
0.23 0.34 0.54 0.65 0.50 0.31 0.12 0.04 0.03 0.03 0.05 0.05 0.08 0.09 0.09 0.10 0.11 0.19 0.29 0.28 0.26 0.29 0.40 0.62 0.96 1.21 1.25 1.19 1.10 1.04 1.03 0.96 0.92 0.95 0.98 0.97 0.95 0.91 0.88 0.92 0.93 0.94 0.99 0.91 0.85 0.73 0.67 0.57 0.54
0.38 0.54 0.75 0.71 0.52 0.29 0.12 0.04 0.04 0.05 0.06 0.08 0.10 0.11 0.12 0.15 0.15 0.21 0.31 0.38 0.42 0.44 0.56 0.80 1.08 1.29 1.37 1.29 1.27 1.23 1.22 1.19 1.14 1.08 1.08 1.11 1.08 1.03 0.97 0.94 0.95 0.91 0.91 0.80 0.73 0.60 0.49 0.44 0.40
0.61 0.80 0.85 0.71 0.50 0.25 0.11 0.07 0.07 0.08 0.08 0.09 0.12 0.18 0.19 0.18 0.22 0.27 0.39 0.49 0.54 0.61 0.73 1.01 1.24 1.40 1.46 1.36 1.34 1.36 1.37 1.39 1.35 1.22 1.16 1.19 1.19 1.09 0.98 0.93 0.87 0.79 0.77 0.73 0.63 0.54 0.45 0.40 0.38
0.90 1.02 0.86 0.66 0.43 0.22 0.10 0.09 0.10 0.11 0.12 0.13 0.16 0.23 0.27 0.26 0.28 0.40 0.57 0.67 0.71 0.83 0.96 1.19 1.49 1.68 1.70 1.61 1.54 1.51 1.49 1.49 1.51 1.42 1.29 1.31 1.34 1.28 1.10 0.93 0.82 0.72 0.69 0.64 0.60 0.52 0.47 0.41 0.39
1.18 1.18 0.91 0.58 0.35 0.22 0.11 0.10 0.12 0.14 0.15 0.17 0.23 0.29 0.39 0.39 0.41 0.53 0.76 0.89 0.93 1.05 1.19 1.43 1.74 1.86 1.95 1.86 1.78 1.75 1.68 1.58 1.56 1.58 1.51 1.45 1.47 1.44 1.23 0.97 0.84 0.79 0.75 0.68 0.63 0.58 0.51 0.45 0.39
1.18 1.18 0.86 0.45 0.30 0.25 0.14 0.12 0.16 0.17 0.17 0.20 0.26 0.37 0.50 0.57 0.68 0.76 0.95 1.15 1.24 1.36 1.53 1.68 1.87 1.99 2.19 2.05 1.88 1.88 1.85 1.72 1.66 1.66 1.61 1.49 1.47 1.42 1.24 1.02 0.93 0.90 0.86 0.78 0.70 0.65 0.58 0.51 0.43
1.18 1.28 0.86 0.43 0.28 0.28 0.19 0.17 0.20 0.22 0.22 0.23 0.33 0.45 0.56 0.69 0.87 1.07 1.28 1.39 1.58 1.70 1.86 1.94 2.06 2.14 2.32 2.30 2.05 1.87 1.76 1.70 1.72 1.65 1.46 1.24 1.25 1.31 1.25 0.99 0.92 0.93 0.90 0.88 0.78 0.67 0.60 0.53 0.42
1.21 1.29 0.83 0.46 0.34 0.30 0.26 0.28 0.26 0.25 0.33 0.37 0.43 0.50 0.63 0.83 1.13 1.40 1.65 1.75 1.94 2.10 2.16 2.22 2.23 2.20 2.31 2.42 2.24 2.13 1.97 1.86 1.76 1.67 1.42 1.28 1.32 1.28 1.21 0.98 0.83 0.91 0.91 0.95 0.89 0.79 0.67 0.53 0.42
1.25 1.06 0.62 0.40 0.37 0.36 0.32 0.34 0.35 0.41 0.47 0.53 0.62 0.70 0.86 1.17 1.55 1.73 1.83 1.91 2.03 2.21 2.28 2.39 2.34 2.32 2.40 2.44 2.40 2.42 2.26 2.08 1.91 1.71 1.55 1.46 1.36 1.35 1.24 1.15 0.94 0.97 1.01 1.00 0.96 0.83 0.76 0.61 0.46
0.91 0.76 0.53 0.42 0.39 0.40 0.41 0.39 0.41 0.50 0.55 0.53 0.62 0.82 1.14 1.53 1.91 1.96 2.09 2.20 2.21 2.37 2.45 2.55 2.49 2.53 2.52 2.50 2.39 2.39 2.31 2.29 2.17 1.97 1.72 1.63 1.55 1.47 1.47 1.31 1.18 1.13 1.07 1.08 0.95 0.86 0.78 0.64 0.53
0.66 0.52 0.49 0.47 0.42 0.45 0.47 0.48 0.52 0.52 0.53 0.52 0.61 0.81 1.19 1.62 1.92 2.01 2.24 2.38 2.49 2.60 2.73 2.76 2.72 2.76 2.73 2.63 2.45 2.27 2.15 2.14 2.16 2.01 1.96 1.83 1.71 1.57 1.45 1.30 1.17 1.13 1.03 1.00 0.91 0.81 0.73 0.64 0.59
0.53 0.43 0.43 0.50 0.50 0.48 0.48 0.48 0.57 0.51 0.50 0.57 0.67 0.93 1.23 1.63 1.99 2.16 2.42 2.58 2.70 2.86 2.93 3.02 2.98 2.88 2.79 2.78 2.67 2.34 2.08 1.92 1.97 2.01 2.01 1.95 1.74 1.56 1.50 1.36 1.31 1.20 1.08 1.05 1.00 0.88 0.79 0.71 0.67
0.43 0.41 0.49 0.57 0.62 0.52 0.52 0.52 0.58 0.55 0.53 0.65 0.78 0.98 1.21 1.60 2.09 2.32 2.61 2.86 2.82 3.05 3.18 3.32 3.23 3.10 2.85 2.70 2.70 2.50 2.21 2.01 1.95 1.92 1.94 2.07 1.95 1.76 1.70 1.50 1.45 1.37 1.28 1.21 1.16 1.07 1.03 0.93 0.84
0.48 0.57 0.62 0.66 0.70 0.58 0.60 0.70 0.61 0.56 0.53 0.63 0.77 0.97 1.19 1.52 1.97 2.29 2.55 2.74 2.95 3.14 3.38 3.49 3.48 3.36 3.06 2.80 2.77 2.65 2.44 2.26 2.10 1.82 1.81 1.95 2.06 2.03 1.98 1.73 1.58 1.50 1.47 1.48 1.42 1.30 1.21 1.14 1.02
0.78 0.92 0.86 0.61 0.67 0.65 0.75 0.81 0.56 0.55 0.58 0.60 0.69 0.90 1.12 1.33 1.70 2.04 2.42 2.65 2.87 3.21 3.42 3.53 3.56 3.52 3.32 3.02 2.92 2.85 2.64 2.47 2.34 2.10 1.92 1.88 1.99 2.14 2.20 1.92 1.68 1.57 1.56 1.54 1.48 1.40 1.27 1.12 1.07
1.11 0.91 0.70 0.54 0.56 0.70 0.71 0.74 0.61 0.57 0.61 0.57 0.60 0.77 1.06 1.25 1.46 1.72 2.11 2.48 2.67 3.03 3.32 3.61 3.60 3.52 3.45 3.33 3.23 3.15 3.01 2.79 2.59 2.30 2.08 2.05 2.06 2.19 2.36 2.08 1.81 1.72 1.69 1.59 1.57 1.50 1.43 1.26 1.12
0.90 0.58 0.48 0.50 0.53 0.65 0.61 0.54 0.60 0.62 0.62 0.57 0.61 0.71 0.92 1.18 1.24 1.46 1.80 2.28 2.50 2.83 3.17 3.40 3.72 3.70 3.76 3.77 3.63 3.52 3.42 3.19 2.92 2.55 2.25 2.18 2.15 2.20 2.43 2.31 2.07 1.98 1.89 1.76 1.64 1.55 1.55 1.52 1.42
0.72 0.60 0.46 0.37 0.42 0.59 0.57 0.48 0.56 0.57 0.61 0.61 0.62 0.68 0.76 0.97 1.13 1.37 1.70 2.08 2.39 2.60 2.93 3.10 3.36 3.63 3.75 3.71 3.48 3.31 3.21 3.28 3.18 2.85 2.56 2.51 2.38 2.26 2.36 2.39 2.31 2.17 2.04 1.89 1.79 1.71 1.64 1.65 1.71
0.88 0.81 0.56 0.41 0.36 0.56 0.58 0.52 0.54 0.57 0.60 0.60 0.63 0.63 0.68 0.80 1.00 1.25 1.64 1.85 2.07 2.32 2.51 2.83 2.97 3.33 3.46 3.36 3.36 3.28 3.27 3.32 3.33 3.18 2.92 2.79 2.70 2.51 2.40 2.37 2.35 2.29 2.20 2.10 2.05 1.97 1.90 1.79 1.75
0.92 0.79 0.65 0.59 0.51 0.62 0.72 0.70 0.56 0.56 0.54 0.49 0.51 0.52 0.61 0.70 0.82 1.04 1.40 1.69 1.82 2.07 2.34 2.46 2.63 2.91 3.25 3.37 3.57 3.73 3.73 3.55 3.37 3.25 3.17 2.99 2.95 2.84 2.60 2.47 2.47 2.43 2.32 2.20 2.15 2.14 2.15 2.13 2.06
0.96 0.59 0.64 0.70 0.93 0.93 0.78 0.98 0.67 0.55 0.50 0.48 0.50 0.49 0.57 0.66 0.76 0.90 1.04 1.32 1.53 1.71 2.11 2.42 2.63 2.82 3.04 3.46 3.54 3.48 3.38 3.17 2.94 3.00 3.10 3.11 3.06 3.02 2.83 2.73 2.70 2.60 2.45 2.35 2.36 2.33 2.32 2.35 2.33
0.87 0.60 0.70 0.83 1.02 1.06 0.74 0.87 0.70 0.48 0.50 0.51 0.53 0.54 0.65 0.77 0.83 0.88 0.94 1.10 1.28 1.46 1.84 2.21 2.49 2.84 3.09 3.27 3.39 3.47 3.29 3.05 2.99 3.00 3.02 2.98 2.93 2.94 2.91 2.84 2.90 2.81 2.67 2.55 2.55 2.55 2.54 2.51 2.45
0.94 0.99 1.08 1.17 1.55 1.57 0.69 0.70 0.70 0.60 0.62 0.58 0.55 0.58 0.71 0.83 0.87 0.86 0.93 1.06 1.23 1.35 1.57 1.95 2.24 2.42 2.74 3.07 3.15 3.22 3.22 3.18 3.10 2.93 2.88 2.91 2.92 2.91 2.90 2.90 2.89 2.87 2.84 2.76 2.68 2.62 2.60 2.55 2.48
1.40 2.00 2.66 2.63 2.31 1.26 0.48 0.56 0.68 0.64 0.66 0.68 0.69 0.70 0.76 0.80 0.82 0.83 0.91 1.05 1.25 1.40 1.52 1.65 1.86 2.02 2.24 2.54 2.74 2.81 2.96 3.07 2.95 2.82 2.68 2.67 2.70 2.71 2.75 2.78 2.82 2.84 2.78 2.81 2.81 2.77 2.65 2.59 2.55
1.43 1.73 2.08 1.76 1.12 0.65 0.46 0.57 0.67 0.63 0.65 0.67 0.70 0.69 0.70 0.76 0.81 0.83 0.84 0.92 1.07 1.28 1.46 1.52 1.61 1.74 1.93 2.10 2.27 2.48 2.66 2.87 2.89 2.80 2.61 2.52 2.47 2.45 2.61 2.67 2.59 2.59 2.66 2.72 2.76 2.72 2.60 2.51 2.44
1.31 1.33 1.21 1.50 0.96 0.66 0.55 0.51 0.50 0.45 0.47 0.55 0.61 0.62 0.68 0.76 0.79 0.80 0.81 0.84 0.97 1.11 1.30 1.40 1.49 1.60 1.69 1.83 1.99 2.20 2.33 2.46 2.55 2.65 2.59 2.52 2.44 2.39 2.35 2.39 2.39 2.31 2.34 2.47 2.60 2.57 2.48 2.41 2.32
1.08 1.11 1.38 1.93 1.56 0.95 0.57 0.45 0.60 0.57 0.55 0.59 0.62 0.69 0.78 0.81 0.77 0.76 0.79 0.86 0.96 1.01 1.15 1.32 1.41 1.48 1.52 1.61 1.72 1.85 2.02 2.21 2.30 2.43 2.40 2.34 2.36 2.38 2.28 2.15 2.13 2.10 2.09 2.18 2.29 2.30 2.25 2.23 2.16
1.03 1.31 1.56 1.59 1.29 1.14 0.84 0.72 0.73 0.69 0.65 0.67 0.69 0.74 0.82 0.85 0.83 0.82 0.85 0.94 1.03 1.02 1.10 1.27 1.37 1.49 1.54 1.55 1.59 1.63 1.70 1.83 2.00 2.17 2.25 2.18 2.23 2.29 2.26 2.10 2.03 2.00 1.93 1.94 2.00 1.97 2.00 2.04 2.02
0.90 1.02 1.30 1.74 1.32 0.96 0.92 0.90 0.72 0.68 0.65 0.65 0.68 0.72 0.77 0.81 0.83 0.88 0.94 0.95 0.97 1.07 1.16 1.25 1.33 1.46 1.57 1.61 1.61 1.63 1.64 1.66 1.77 1.86 2.06 2.10 2.16 2.16 2.21 2.15 2.03 1.94 1.86 1.82 1.84 1.82 1.77 1.78 1.80